Home   Weather   Cincinnati   Past weeks

Flag for USA Past Weather in Cincinnati, Ohio, USA — Yesterday and Last 2 Weeks

66 °F

Partly sunny.

Feels Like: 66 °F
Forecast: 42 / 66 °F
Wind: No wind

Location: Cincinnati Municipal Airport Lunken Field

Current Time: Oct 26, 2016 at 5:20:39 PM

Latest Report: Oct 26, 2016 at 4:53 PM

Visibility: 10 mi

Pressure: 30.13 "Hg

Humidity: 52%

Dew Point: 48 °F

Location of CincinnatiLocation

Past Weather in Cincinnati — Graph


Cincinnati Temperature Yesterday

Maximum temperature yesterday: 59 °F (at 3:53 PM)
Minimum temperature yesterday: 35 °F (at 7:55 AM)
Average temperature yesterday: 46 °F

High & Low Weather Summary for the Past Weeks

High82 °F (Oct 17, 2:53 PM)100% (Oct 11, 9:53 PM)30.45 "Hg (Oct 11, 9:53 PM)
Low35 °F (Oct 25, 7:55 AM)42% (Oct 12, 2:53 PM)29.80 "Hg (Oct 18, 2:53 PM)
Average59 °F80%30.11 "Hg
* Reported Oct 11 3:53 PM — Oct 26 3:53 PM, Cincinnati, Weather by CustomWeather, © 2016

Note: Actual official high and low records may vary slightly from our data, if they occured in-between our weather recording intervals... More about our weather records


Cincinnati Weather History for the Previous 24 Hours

Scroll right to see more
Time TempWeatherWind HumidityBarometerVisibility
3:53 PM
Wed, Oct 26
65 °FSunny.6 mph51%30.14 "Hg10 mi
2:53 PM63 °FSunny.6 mph52%30.17 "Hg10 mi
1:53 PM61 °FSunny.8 mph52%30.21 "Hg10 mi
12:53 PM57 °FPassing clouds.8 mph55%30.26 "Hg10 mi
11:53 AM54 °FSunny.7 mph62%30.30 "Hg10 mi
10:53 AM50 °FSunny.6 mph66%30.32 "Hg10 mi
9:53 AM49 °FScattered clouds.6 mph71%30.34 "Hg10 mi
8:53 AM45 °FPartly sunny.5 mph82%30.32 "Hg10 mi
7:53 AM45 °FPassing clouds.5 mph82%30.33 "Hg10 mi
6:53 AM41 °FOvercast.3 mph100%30.32 "Hg10 mi
5:53 AM39 °FPassing clouds.No wind100%30.33 "Hg10 mi
4:53 AM39 °FFog.No wind100%30.34 "Hg4 mi
3:53 AM42 °FOvercast.No wind96%30.36 "Hg10 mi
2:53 AM39 °FClear.3 mph100%30.36 "Hg10 mi
1:53 AM40 °FClear.No wind100%30.36 "Hg10 mi
12:53 AM41 °FClear.3 mph89%30.38 "Hg10 mi
11:53 PM
Tue, Oct 25
43 °FPassing clouds.No wind89%30.38 "Hg10 mi
10:53 PM46 °FClear.6 mph83%30.38 "Hg10 mi
9:53 PM45 °FClear.6 mph86%30.38 "Hg10 mi
8:53 PM48 °FClear.6 mph77%30.38 "Hg10 mi
7:53 PM51 °FPassing clouds.6 mph74%30.38 "Hg10 mi
6:53 PM52 °FPassing clouds.8 mph77%30.36 "Hg10 mi
5:53 PM57 °FScattered clouds.5 mph60%30.35 "Hg10 mi
Weather by CustomWeather, © 2016

See weather overviewHow to use our weather pages